{"data":{"norad_id":38755,"intl_designator":"2012-047A","name":"SPOT 6","alt_names":[],"object_type":"PAYLOAD","status":"ACTIVE","operator":null,"country":"FR","launch_date":"2012-09-09","launch_site_code":"SRILR","launch_vehicle":null,"mission":null,"orbit_class":"UNKNOWN","rcs_meters":3.797,"size_class":null,"mass_kg":null,"dimensions":null,"purposes":["earth_obs"],"wikipedia_slug":null,"has_3d_model":false,"image_url":null,"decayed_at":null,"tle_current":{"epoch":"2026-09-20T03:25:49.539936Z","epoch_age_seconds":45365,"freshness":"FRESH","line1":"1 38755U 12047A   26263.14293449  .00000174  00000+0  47217-4 0  9993","line2":"2 38755  98.2030 329.2950 0001275  75.4472 284.6868 14.58534144746891","mean_motion":14.58534144,"eccentricity":0.0001275,"inclination_deg":98.203,"raan_deg":329.295,"arg_perigee_deg":75.4472,"mean_anomaly_deg":284.6868,"bstar":4.7217e-5,"rev_number":74689,"period_min":98.729262247562,"perigee_km":697.00887193608,"apogee_km":698.81326419344,"semimajor_km":7076.0480680648,"source":"CELESTRAK","updated_at":"2026-09-20T09:00:33.893443Z"}}}